EW2804 Weather Reports


Display with metric or nautical units.
time (UTC)temp
F
wind
direction
speed
MPH
gust
MPH
rain 1hr
in
rain 24hr
in
rain mn
in
humidity
%
barometer
mb
20260510153710 78 217 3.0 10.0 0.00 0.02 0.02 63 1012.2
20260510152713 77 126 4.0 12.0 0.00 0.02 0.02 62 1011.4
20260510151707 76 159 3.0 12.0 0.00 0.01 0.01 62 1011.3
20260510150727 75 153 3.0 8.0 0.00 0.01 0.01 63 1011.5
20260510145716 74 180 3.0 12.0 0.00 0.01 0.01 65 1011.4
20260510144727 73 140 2.0 12.0 0.00 0.01 0.01 67 1011.6
20260510143727 73 161 3.0 10.0 0.00 0.01 0.01 68 1011.6
20260510142721 73 132 2.0 10.0 0.00 0.01 0.01 67 1011.8
20260510141744 72 188 2.0 7.0 0.00 0.01 0.01 69 1011.9
20260510140804 72 199 2.0 10.0 0.00 0.01 0.01 70 1012.1
20260510135757 71 143 3.0 10.0 0.00 0.01 0.01 71 1012.3
20260510134740 70 132 2.0 7.0 0.00 0.01 0.01 73 1012.4
20260510132607 69 130 1.0 6.0 0.00 0.01 0.01 75 1012.6
20260510130414 69 149 0.0 5.0 0.00 0.01 0.01 76 1012.9
20260510125346 69 136 1.0 4.0 0.00 0.01 0.01 77 1012.5
20260510124334 69 142 1.0 6.0 0.00 0.01 0.01 77 1012.5
20260510123337 68 128 1.0 9.0 0.00 0.01 0.01 77 1012.3
20260510122306 68 132 1.0 9.0 0.00 0.01 0.01 77 1012.1
20260510121226 67 128 0.0 3.0 0.00 0.01 0.01 78 1012.1
20260510120155 67 201 0.0 4.0 0.00 0.01 0.01 78 1012.1
20260510115136 67 129 1.0 4.0 0.00 0.01 0.01 78 1011.9
20260510114138 67 126 1.0 4.0 0.00 0.01 0.01 78 1011.7
20260510113152 67 129 0.0 5.0 0.00 0.01 0.01 77 1011.5
20260510112139 67 120 1.0 5.0 0.00 0.01 0.01 78 1011.6
20260510110000 67 155 0.0 4.0 0.00 0.01 0.01 79 1011.6
20260510104931 66 34 0.0 4.0 0.00 0.01 0.01 79 1011.6
20260510103902 66 0 0.0 7.0 0.00 0.01 0.01 79 1011.6
20260510102828 66 130 1.0 9.0 0.00 0.01 0.01 79 1011.4
20260510100656 66 112 1.0 8.0 0.00 0.01 0.01 81 1011.3
20260510095627 66 90 1.0 8.0 0.00 0.01 0.01 82 1011.4
20260510094616 66 44 1.0 7.0 0.00 0.01 0.01 82 1011.4
20260510093616 66 49 3.0 9.0 0.00 0.01 0.01 82 1011.5
20260510092539 67 36 1.0 8.0 0.00 0.01 0.01 80 1011.3
20260510091505 68 15 2.0 10.0 0.00 0.01 0.01 77 1011.1
20260510090524 70 42 2.0 14.0 0.00 0.01 0.01 75 1010.4
20260510085540 72 342 3.0 14.0 0.00 0.00 0.00 73 1010.3
20260510083403 73 67 3.0 10.0 0.00 0.00 0.00 71 1010.4
20260510082344 74 347 3.0 10.0 0.00 0.00 0.00 75 1010.2
20260510081355 74 41 1.0 8.0 0.00 0.00 0.00 77 1010.3
20260510075247 75 342 2.0 10.0 0.00 0.00 0.00 78 1010.5
20260510073108 75 111 0.0 0.0 0.00 0.00 0.00 76 1008.8
20260510070940 76 123 0.0 0.0 0.00 0.00 0.00 73 1008.4
20260510065954 76 123 0.0 3.0 0.00 0.00 0.00 72 1008.1
20260510065003 76 111 0.0 3.0 0.00 0.00 0.00 71 1008.2
20260510064009 76 105 1.0 3.0 0.00 0.00 0.00 70 1007.9
20260510063028 77 190 1.0 7.0 0.00 0.00 0.00 69 1007.7
20260510061958 77 173 3.0 14.0 0.00 0.00 0.00 68 1008.0
20260510055913 76 113 4.0 12.0 0.00 0.00 0.00 69 1010.4
20260510054850 76 42 4.0 12.0 0.00 0.00 0.00 69 1010.3
20260510053824 76 355 3.0 9.0 0.00 0.00 0.00 67 1009.8
20260510052830 76 51 0.0 4.0 0.00 0.00 0.00 68 1007.8
20260510051817 76 238 0.0 4.0 0.00 0.00 0.00 67 1007.0
20260510050825 76 119 0.0 0.0 0.00 0.00 0.00 66 1006.9
20260510044656 77 150 0.0 4.0 0.00 0.00 0.00 65 1006.8
20260510043641 77 64 1.0 6.0 0.00 0.00 0.00 65 1006.5
20260510042621 77 86 0.0 6.0 0.00 0.00 0.00 65 1006.3
20260510041625 77 119 0.0 4.0 0.00 0.00 0.00 65 1006.4
20260510040626 77 146 1.0 4.0 0.00 0.00 0.00 65 1006.6
20260510035636 77 157 0.0 3.0 0.00 0.00 0.00 65 1006.6
20260510034630 77 182 0.0 4.0 0.00 0.00 0.00 65 1006.9
20260510032440 76 136 0.0 2.0 0.00 0.00 0.00 66 1006.9
20260510031452 76 106 0.0 2.0 0.00 0.00 0.00 65 1006.8
20260510030417 77 105 0.0 0.0 0.00 0.00 0.00 64 1007.1
20260510025426 77 105 0.0 2.0 0.00 0.00 0.00 63 1007.1
20260510024432 77 103 0.0 0.0 0.00 0.00 0.00 62 1006.9
20260510023408 78 78 0.0 0.0 0.00 0.00 0.00 61 1007.1
20260510022352 78 78 0.0 1.0 0.00 0.00 0.00 60 1006.9
20260510021413 79 78 0.0 1.0 0.00 0.00 0.00 60 1006.8
20260510020413 79 74 0.0 2.0 0.00 0.00 0.00 59 1006.7
20260510015344 80 70 0.0 2.0 0.00 0.00 0.00 58 1006.6
20260510014345 81 95 0.0 3.0 0.00 0.00 0.00 58 1006.4
20260510012233 82 136 0.0 6.0 0.00 0.00 0.00 57 1006.2
20260510010103 83 144 1.0 3.0 0.00 0.00 0.00 57 1005.8
20260510005107 84 92 1.0 7.0 0.00 0.00 0.00 57 1005.8
20260510004032 84 157 2.0 7.0 0.00 0.00 0.00 57 1005.7
20260510003018 85 126 1.0 7.0 0.00 0.00 0.00 56 1005.8
20260509235734 88 169 1.0 5.0 0.00 0.00 0.00 50 1005.7
20260509233551 89 120 0.0 4.0 0.00 0.00 0.00 46 1005.9
20260509232556 89 153 1.0 5.0 0.00 0.00 0.00 44 1005.9
20260509231542 90 142 0.0 4.0 0.00 0.00 0.00 42 1006.0
20260509230544 89 146 1.0 2.0 0.00 0.00 0.00 42 1005.9
20260509225606 89 190 1.0 5.0 0.00 0.00 0.00 41 1006.0
20260509223456 89 27 1.0 6.0 0.00 0.00 0.00 42 1006.0
20260509222453 89 180 1.0 4.0 0.00 0.00 0.00 45 1006.0
20260509221435 90 101 1.0 4.0 0.00 0.00 0.00 42 1005.9
20260509220453 90 116 0.0 3.0 0.00 0.00 0.00 40 1005.9
20260509215421 90 147 0.0 6.0 0.00 0.00 0.00 41 1005.9
20260509214435 89 114 1.0 6.0 0.00 0.00 0.00 45 1006.1
20260509213426 89 220 2.0 5.0 0.00 0.00 0.00 40 1006.1
20260509210051 88 0 2.0 6.0 0.00 0.00 0.00 46 1006.6
20260509205040 88 338 2.0 7.0 0.00 0.00 0.00 42 1006.8
20260509202844 88 100 1.0 8.0 0.00 0.00 0.00 42 1007.1
20260509201834 88 81 1.0 8.0 0.00 0.00 0.00 46 1007.2
20260509200829 87 134 2.0 8.0 0.00 0.00 0.00 47 1007.2
20260509195837 87 107 1.0 7.0 0.00 0.00 0.00 46 1007.3
20260509194819 87 32 2.0 5.0 0.00 0.00 0.00 45 1007.5
20260509192626 86 40 1.0 8.0 0.00 0.00 0.00 51 1007.7
20260509185251 85 25 1.0 6.0 0.00 0.00 0.00 57 1008.0
20260509184301 85 122 1.0 6.0 0.00 0.00 0.00 56 1008.1
20260509183314 84 9 1.0 8.0 0.00 0.00 0.00 58 1008.1
20260509182322 84 49 3.0 8.0 0.00 0.00 0.00 57 1008.2
20260509181259 84 53 2.0 7.0 0.00 0.00 0.00 58 1008.3
20260509180239 84 126 1.0 7.0 0.00 0.00 0.00 58 1008.4
20260509174036 84 331 2.0 9.0 0.00 0.00 0.00 63 1008.6
20260509173030 83 0 1.0 5.0 0.00 0.00 0.00 60 1008.8
20260509172029 83 336 1.0 6.0 0.00 0.00 0.00 60 1008.8
20260509165826 82 54 2.0 6.0 0.00 0.00 0.00 61 1009.0
20260509164831 82 55 2.0 6.0 0.00 0.00 0.00 64 1009.0
20260509161550 81 40 1.0 6.0 0.00 0.00 0.00 63 1009.2
20260509160527 81 58 2.0 7.0 0.00 0.00 0.00 63 1009.1
20260509155458 80 5 2.0 7.0 0.00 0.00 0.00 63 1009.1